GW3097 Weather Reports


Display with metric or nautical units.
time (UTC)temp
F
wind
direction
speed
MPH
gust
MPH
rain 1hr
in
rain 24hr
in
rain mn
in
humidity
%
barometer
mb
20260506221806 50 213 2.0 2.0 0.00 0.26 0.26 90 1039.6
20260506221303 50 331 5.0 6.0 0.00 0.26 0.26 90 1039.3
20260506220801 50 354 3.0 8.0 0.00 0.26 0.26 90 1039.3
20260506220255 50 301 11.0 25.0 0.00 0.26 0.26 90 1039.3
20260506215752 50 241 6.0 11.0 0.02 0.26 0.26 92 1038.8
20260506215248 51 321 6.0 15.0 0.02 0.26 0.26 92 1038.7
20260506214744 51 286 6.0 17.0 0.00 0.26 0.26 92 1038.5
20260506214241 51 269 15.0 19.0 0.02 0.26 0.26 93 1038.1
20260506213740 51 279 15.0 19.0 0.02 0.26 0.26 93 1037.9
20260506213232 52 318 15.0 18.0 0.00 0.25 0.25 92 1037.9
20260506212729 53 308 15.0 17.0 0.00 0.25 0.25 92 1037.9
20260506212224 53 275 13.0 19.0 0.00 0.25 0.25 91 1037.3
20260506211719 53 294 12.0 21.0 0.00 0.25 0.25 91 1037.5
20260506211216 53 285 11.0 16.0 0.00 0.25 0.25 91 1037.3
20260506210713 53 283 12.0 16.0 0.00 0.25 0.25 91 1037.0
20260506210210 54 310 12.0 16.0 0.00 0.25 0.25 91 1037.3
20260506205707 54 271 12.0 19.0 0.00 0.25 0.25 92 1037.2
20260506205202 55 296 10.0 16.0 0.07 0.25 0.25 92 1037.0
20260506204700 58 242 10.0 19.0 0.07 0.25 0.25 92 1037.1
20260506204156 60 238 6.0 10.0 0.00 0.24 0.24 93 1036.7
20260506203655 60 242 2.0 7.0 0.00 0.24 0.24 93 1036.7
20260506203152 60 207 5.0 8.0 0.00 0.24 0.24 93 1036.6
20260506202650 60 183 4.0 10.0 0.00 0.24 0.24 94 1036.7
20260506202145 60 227 6.0 8.0 0.00 0.24 0.24 94 1036.9
20260506201643 60 248 6.0 8.0 0.00 0.24 0.24 93 1037.0
20260506201139 60 257 3.0 9.0 0.00 0.24 0.24 94 1036.8
20260506200636 60 257 3.0 11.0 0.00 0.24 0.24 94 1036.9
20260506200133 60 256 5.0 7.0 0.00 0.24 0.24 94 1036.9
20260506195629 59 180 9.0 11.0 0.00 0.24 0.24 94 1037.2
20260506195125 59 256 9.0 17.0 0.00 0.24 0.24 94 1037.1
20260506194623 59 192 9.0 14.0 0.00 0.24 0.24 95 1037.1
20260506194119 59 234 9.0 11.0 0.00 0.24 0.24 95 1037.2
20260506193617 59 256 4.0 7.0 0.00 0.24 0.24 95 1037.2
20260506193114 59 237 6.0 10.0 0.00 0.24 0.24 95 1037.0
20260506192610 59 256 6.0 9.0 0.00 0.24 0.24 95 1037.1
20260506192101 59 244 3.0 10.0 0.00 0.24 0.24 95 1037.2
20260506191557 59 222 4.0 6.0 0.00 0.24 0.24 95 1037.4
20260506191053 59 228 4.0 6.0 0.00 0.24 0.24 95 1037.1
20260506190551 59 188 9.0 14.0 0.00 0.24 0.24 95 1037.4
20260506190047 59 242 4.0 8.0 0.00 0.24 0.24 95 1037.4
20260506185544 59 261 3.0 7.0 0.00 0.24 0.24 95 1037.4
20260506185036 59 262 2.0 6.0 0.00 0.24 0.24 95 1037.3
20260506184533 59 212 6.0 13.0 0.00 0.24 0.24 95 1037.7
20260506184030 59 249 4.0 7.0 0.00 0.24 0.24 95 1037.7
20260506183525 59 232 4.0 9.0 0.00 0.24 0.24 95 1037.7
20260506183023 58 229 4.0 10.0 0.00 0.24 0.24 95 1037.7
20260506182520 58 226 8.0 13.0 0.00 0.24 0.24 95 1037.8
20260506182017 58 232 8.0 10.0 0.00 0.24 0.24 95 1037.8
20260506181515 58 214 7.0 9.0 0.00 0.24 0.24 95 1038.0
20260506181012 58 273 5.0 10.0 0.00 0.24 0.24 95 1037.8
20260506180508 58 225 7.0 13.0 0.00 0.24 0.24 95 1037.5
20260506180006 58 249 6.0 8.0 0.00 0.24 0.24 95 1037.7
20260506175502 59 257 4.0 7.0 0.00 0.24 0.24 95 1037.8
20260506174958 59 251 3.0 4.0 0.00 0.24 0.24 95 1037.5
20260506174456 58 244 3.0 8.0 0.00 0.24 0.24 95 1037.7
20260506173946 59 257 4.0 6.0 0.00 0.24 0.24 95 1037.5
20260506173443 59 235 3.0 8.0 0.05 0.24 0.24 95 1037.5
20260506172935 59 225 4.0 8.0 0.05 0.24 0.24 95 1037.8
20260506172432 58 258 5.0 8.0 0.00 0.23 0.23 95 1037.7
20260506171928 58 247 5.0 6.0 0.07 0.23 0.23 95 1037.8
20260506171426 58 233 2.0 6.0 0.07 0.23 0.23 95 1037.8
20260506170923 58 255 3.0 7.0 0.05 0.22 0.22 95 1037.9
20260506170419 58 258 2.0 8.0 0.07 0.21 0.21 95 1037.9
20260506165913 59 243 4.0 8.0 0.12 0.21 0.21 95 1037.8
20260506165411 58 265 4.0 7.0 0.12 0.20 0.20 95 1037.9
20260506164906 58 245 4.0 7.0 0.07 0.19 0.19 95 1037.9
20260506164402 58 246 3.0 4.0 0.05 0.18 0.18 95 1037.9
20260506163901 59 251 2.0 4.0 0.05 0.18 0.18 95 1038.0
20260506163356 59 269 2.0 4.0 0.00 0.17 0.17 95 1037.8
20260506162851 59 263 2.0 6.0 0.00 0.17 0.17 95 1037.9
20260506162349 59 242 2.0 4.0 0.00 0.17 0.17 95 1037.9
20260506161841 59 236 3.0 6.0 0.00 0.17 0.17 95 1037.9
20260506161338 59 258 3.0 6.0 0.00 0.17 0.17 95 1037.8
20260506160835 59 240 2.0 3.0 0.07 0.17 0.17 95 1037.9
20260506160332 59 250 2.0 4.0 0.14 0.17 0.17 95 1037.9
20260506155830 59 235 2.0 7.0 0.12 0.16 0.16 95 1038.2
20260506155326 59 238 4.0 6.0 0.12 0.15 0.15 95 1038.2
20260506153439 59 224 3.0 7.0 0.12 0.11 0.11 94 1038.2
20260506152937 59 246 5.0 7.0 0.12 0.10 0.10 94 1038.4
20260506152433 59 224 4.0 7.0 0.05 0.09 0.09 94 1038.3
20260506151932 59 229 5.0 7.0 0.00 0.08 0.08 94 1038.1
20260506151428 59 212 6.0 7.0 0.07 0.08 0.08 94 1038.3
20260506150921 59 251 3.0 3.0 0.07 0.08 0.08 94 1038.2
20260506150416 59 220 3.0 3.0 0.05 0.07 0.07 94 1038.2
20260506145914 59 231 2.0 4.0 0.05 0.07 0.07 94 1038.0
20260506145409 59 232 1.0 2.0 0.00 0.06 0.06 94 1038.0
20260506144907 59 248 3.0 3.0 0.07 0.06 0.06 93 1038.0
20260506144403 59 251 3.0 3.0 0.07 0.06 0.06 93 1038.2
20260506143902 59 239 2.0 4.0 0.00 0.05 0.05 93 1038.2
20260506143359 59 259 2.0 4.0 0.00 0.05 0.05 94 1038.1
20260506142857 59 247 1.0 3.0 0.05 0.05 0.05 94 1038.3
20260506142355 59 258 1.0 2.0 0.05 0.05 0.05 94 1038.0
20260506141853 59 245 1.0 3.0 0.07 0.04 0.04 94 1038.2
20260506141350 58 252 1.0 1.0 0.07 0.04 0.04 94 1038.4
20260506140848 59 259 0.0 0.0 0.00 0.03 0.03 94 1038.3
20260506140345 58 263 1.0 4.0 0.00 0.03 0.03 93 1038.6
20260506135842 58 261 2.0 3.0 0.00 0.03 0.03 93 1038.7
20260506135339 59 243 1.0 4.0 0.00 0.03 0.03 93 1038.8
20260506134835 59 260 2.0 6.0 0.00 0.03 0.03 92 1038.5
20260506134331 59 261 0.0 1.0 0.00 0.03 0.03 92 1038.8
20260506133829 59 222 2.0 2.0 0.00 0.03 0.03 91 1039.0
20260506133325 59 228 3.0 3.0 0.00 0.03 0.03 91 1039.0
20260506132822 59 230 2.0 3.0 0.00 0.03 0.03 90 1039.0
20260506132319 59 249 1.0 3.0 0.00 0.03 0.03 89 1039.0
20260506131817 59 211 4.0 6.0 0.00 0.03 0.03 88 1039.1
20260506131313 60 256 2.0 4.0 0.09 0.03 0.03 87 1039.2
20260506130810 60 226 4.0 9.0 0.09 0.03 0.03 86 1039.2
20260506130307 60 237 3.0 8.0 0.00 0.02 0.02 86 1039.3
20260506125805 60 229 2.0 8.0 0.05 0.02 0.02 84 1039.3
20260506125305 60 187 6.0 9.0 0.05 0.02 0.02 83 1039.0
20260506124801 61 203 4.0 9.0 0.00 0.01 0.01 82 1038.9
20260506124258 61 216 3.0 10.0 0.05 0.01 0.01 79 1038.7
20260506123755 62 70 3.0 8.0 0.05 0.01 0.01 78 1038.5
20260506123254 62 222 4.0 7.0 0.00 0.00 0.00 76 1038.3
20260506122750 62 249 2.0 6.0 0.00 0.00 0.00 74 1038.2
20260506122247 63 262 3.0 9.0 0.00 0.00 0.00 72 1038.2
20260506121745 63 199 2.0 8.0 0.00 0.00 0.00 70 1038.5
20260506121242 63 210 2.0 6.0 0.00 0.00 0.00 68 1038.5
20260506120739 62 241 3.0 6.0 0.00 0.00 0.00 67 1038.4
20260506120237 63 256 1.0 2.0 0.00 0.00 0.00 67 1038.8
20260506115735 62 239 2.0 3.0 0.00 0.00 0.00 66 1038.8
20260506115233 63 254 1.0 3.0 0.00 0.00 0.00 65 1038.6
20260506114730 63 254 1.0 3.0 0.00 0.00 0.00 65 1038.5
20260506114227 63 254 1.0 2.0 0.00 0.00 0.00 64 1038.4
20260506113726 63 245 1.0 4.0 0.00 0.00 0.00 64 1038.6
20260506113223 63 250 1.0 4.0 0.00 0.00 0.00 64 1038.6
20260506112719 63 240 1.0 2.0 0.00 0.00 0.00 65 1038.5
20260506112217 63 255 2.0 3.0 0.00 0.00 0.00 64 1038.6
20260506111714 63 254 1.0 2.0 0.00 0.00 0.00 64 1038.4
20260506111213 63 222 4.0 4.0 0.00 0.00 0.00 64 1038.4
20260506110709 62 233 3.0 3.0 0.00 0.00 0.00 63 1038.7
20260506110207 62 249 2.0 3.0 0.00 0.00 0.00 63 1038.5
20260506105703 63 249 1.0 2.0 0.00 0.00 0.00 63 1038.4
20260506105200 63 256 2.0 7.0 0.00 0.00 0.00 61 1038.3
20260506104658 63 260 0.0 2.0 0.00 0.00 0.00 61 1038.2
20260506104155 62 258 1.0 1.0 0.00 0.00 0.00 61 1038.1
20260506103652 63 265 1.0 2.0 0.00 0.00 0.00 61 1037.9
20260506103149 63 260 0.0 2.0 0.00 0.00 0.00 60 1038.0
20260506102647 63 259 0.0 2.0 0.00 0.00 0.00 60 1038.0
20260506102144 63 252 0.0 1.0 0.00 0.00 0.00 59 1038.1
20260506101641 63 257 1.0 2.0 0.00 0.00 0.00 59 1037.9
20260506101138 63 246 0.0 1.0 0.00 0.00 0.00 58 1038.1
20260506100637 63 255 1.0 1.0 0.00 0.00 0.00 57 1038.0
20260506100134 63 256 1.0 2.0 0.00 0.00 0.00 57 1038.1
20260506095633 63 242 2.0 3.0 0.00 0.00 0.00 57 1038.0
20260506095129 63 242 1.0 3.0 0.00 0.00 0.00 57 1038.2
20260506094626 63 250 2.0 2.0 0.00 0.00 0.00 56 1038.3
20260506094124 63 249 0.0 0.0 0.00 0.00 0.00 56 1038.2
20260506093623 63 263 0.0 0.0 0.00 0.00 0.00 56 1038.1
20260506093119 63 260 0.0 0.0 0.00 0.00 0.00 55 1037.9
20260506092617 63 262 0.0 0.0 0.00 0.00 0.00 55 1038.1
20260506092114 63 260 0.0 0.0 0.00 0.00 0.00 55 1037.9
20260506091612 62 264 0.0 0.0 0.00 0.00 0.00 56 1038.1
20260506091109 63 268 0.0 0.0 0.00 0.00 0.00 56 1038.0
20260506090607 62 264 0.0 0.0 0.00 0.00 0.00 57 1038.2
20260506085600 61 283 0.0 0.0 0.00 0.00 0.00 60 1038.4
20260506085056 61 282 0.0 0.0 0.00 0.00 0.00 59 1038.2
20260506084553 62 273 0.0 0.0 0.00 0.00 0.00 58 1038.3
20260506084049 62 262 0.0 0.0 0.00 0.00 0.00 56 1038.4
20260506083547 62 258 0.0 0.0 0.00 0.00 0.00 56 1038.6
20260506083044 62 263 0.0 0.0 0.00 0.00 0.00 56 1038.5
20260506082541 62 263 0.0 0.0 0.00 0.00 0.00 55 1038.3
20260506082036 63 258 0.0 0.0 0.00 0.00 0.00 55 1038.5
20260506081535 63 249 0.0 0.0 0.00 0.00 0.00 54 1038.3
20260506081032 63 265 0.0 0.0 0.00 0.00 0.00 53 1038.3
20260506080530 64 254 0.0 0.0 0.00 0.00 0.00 53 1038.1
20260506073513 64 262 0.0 0.0 0.00 0.00 0.00 53 1038.4
20260506073010 64 262 0.0 0.0 0.00 0.00 0.00 53 1038.5
20260506072507 64 260 0.0 0.0 0.00 0.00 0.00 53 1038.5
20260506072005 64 258 0.0 0.0 0.00 0.00 0.00 52 1038.7
20260506071503 64 259 0.0 0.0 0.00 0.00 0.00 52 1038.8
20260506070959 63 262 0.0 0.0 0.00 0.00 0.00 54 1038.8
20260506070456 62 264 0.0 0.0 0.00 0.00 0.00 55 1038.6
20260506062434 62 269 0.0 0.0 0.00 0.00 0.00 58 1038.8
20260506061930 61 271 0.0 0.0 0.00 0.00 0.00 60 1038.7
20260506061426 61 271 0.0 0.0 0.00 0.00 0.00 61 1038.9
20260506060925 62 264 0.0 0.0 0.00 0.00 0.00 60 1039.0
20260506060423 62 257 0.0 1.0 0.00 0.00 0.00 59 1039.1
20260506051354 62 268 0.0 0.0 0.00 0.00 0.00 61 1039.3
20260506050851 62 268 0.0 0.0 0.00 0.00 0.00 62 1039.4
20260506050349 62 266 0.0 0.0 0.00 0.00 0.00 62 1039.5
20260506044839 63 264 0.0 0.0 0.00 0.00 0.00 59 1039.3
20260506044337 63 263 0.0 0.0 0.00 0.00 0.00 59 1039.5
20260506043834 63 264 0.0 0.0 0.00 0.00 0.00 59 1039.5
20260506043331 63 263 0.0 1.0 0.00 0.00 0.00 58 1039.6
20260506042829 63 274 0.0 0.0 0.00 0.00 0.00 59 1039.5
20260506042328 63 276 0.0 1.0 0.00 0.00 0.00 60 1039.5
20260506041827 63 283 1.0 1.0 0.00 0.00 0.00 61 1039.5
20260506041323 62 290 1.0 2.0 0.00 0.00 0.00 61 1039.5
20260506040820 63 286 1.0 2.0 0.00 0.00 0.00 61 1039.6
20260506040318 63 273 0.0 1.0 0.00 0.00 0.00 60 1039.7
20260506035814 63 280 0.0 1.0 0.00 0.03 0.03 60 1039.7
20260506035311 63 271 1.0 1.0 0.00 0.03 0.03 61 1039.6
20260506034809 63 256 1.0 1.0 0.00 0.03 0.03 61 1039.6
20260506034306 63 264 0.0 0.0 0.00 0.03 0.03 59 1039.6
20260506033802 64 269 0.0 0.0 0.00 0.03 0.03 58 1039.5
20260506033259 64 272 0.0 0.0 0.00 0.03 0.03 57 1039.5
20260506032756 64 270 0.0 0.0 0.00 0.03 0.03 57 1039.6
20260506032253 64 272 0.0 1.0 0.00 0.03 0.03 57 1039.5
20260506031750 64 273 1.0 2.0 0.00 0.03 0.03 57 1039.4
20260506031247 64 280 1.0 2.0 0.00 0.03 0.03 57 1039.5
20260506030745 65 271 2.0 2.0 0.00 0.03 0.03 57 1039.5
20260506030243 65 283 2.0 2.0 0.00 0.03 0.03 55 1039.5
20260506025739 66 274 1.0 1.0 0.00 0.03 0.03 54 1039.4
20260506025235 66 271 1.0 1.0 0.00 0.03 0.03 54 1039.4
20260506024732 66 276 1.0 1.0 0.00 0.03 0.03 54 1039.3
20260506024228 67 275 1.0 1.0 0.00 0.03 0.03 54 1039.5
20260506023720 67 267 0.0 0.0 0.00 0.03 0.03 53 1039.5
20260506023217 67 269 1.0 1.0 0.00 0.03 0.03 52 1039.5
20260506022714 68 268 0.0 1.0 0.00 0.03 0.03 51 1039.5
20260506022212 68 263 1.0 1.0 0.00 0.03 0.03 51 1039.5
20260506021709 68 260 0.0 1.0 0.00 0.03 0.03 51 1039.7
20260506021206 69 254 1.0 1.0 0.00 0.03 0.03 50 1039.5
20260506020703 69 245 2.0 2.0 0.00 0.03 0.03 49 1039.5
20260506020201 69 250 2.0 3.0 0.00 0.03 0.03 49 1039.7
20260506015658 69 260 1.0 2.0 0.00 0.03 0.03 49 1039.5
20260506015156 69 260 2.0 3.0 0.00 0.03 0.03 48 1039.4
20260506014653 69 261 1.0 3.0 0.00 0.03 0.03 48 1039.4
20260506014148 69 248 2.0 2.0 0.00 0.03 0.03 48 1039.3
20260506013646 69 262 1.0 2.0 0.00 0.03 0.03 49 1039.5
20260506013143 69 266 0.0 2.0 0.00 0.03 0.03 49 1039.3
20260506012639 69 264 1.0 1.0 0.00 0.03 0.03 49 1039.2
20260506012135 70 264 1.0 1.0 0.00 0.03 0.03 48 1039.1
20260506011628 71 243 2.0 2.0 0.00 0.03 0.03 46 1038.9
20260506011124 71 244 1.0 2.0 0.00 0.03 0.03 46 1038.9
20260506010623 70 239 0.0 2.0 0.00 0.03 0.03 47 1038.9
20260506010119 71 254 0.0 1.0 0.00 0.03 0.03 46 1038.7
20260506005616 71 260 0.0 1.0 0.00 0.03 0.03 45 1038.8
20260506005113 71 254 1.0 1.0 0.00 0.03 0.03 44 1038.7
20260506004610 72 257 0.0 2.0 0.00 0.03 0.03 44 1038.7
20260506004106 72 225 4.0 7.0 0.00 0.03 0.03 43 1038.9
20260506003602 72 245 1.0 3.0 0.00 0.03 0.03 43 1038.7
20260506003059 73 256 0.0 2.0 0.00 0.03 0.03 43 1038.7
20260506002554 73 228 2.0 3.0 0.00 0.03 0.03 43 1038.7
20260506002051 73 255 1.0 2.0 0.00 0.03 0.03 43 1038.6
20260506001547 73 259 1.0 2.0 0.00 0.03 0.03 43 1038.6
20260506001045 73 249 2.0 2.0 0.00 0.03 0.03 43 1038.6
20260506000542 73 258 1.0 3.0 0.00 0.03 0.03 43 1038.6
20260506000039 73 247 1.0 2.0 0.00 0.03 0.03 44 1038.5
20260505235537 73 245 1.0 2.0 0.00 0.03 0.03 44 1038.4
20260505235034 73 241 1.0 3.0 0.00 0.03 0.03 43 1038.3
20260505234531 73 249 2.0 6.0 0.00 0.03 0.03 42 1038.3
20260505234027 73 224 3.0 3.0 0.00 0.03 0.03 43 1038.5
20260505233525 73 258 2.0 6.0 0.00 0.03 0.03 43 1038.1
20260505233022 73 258 2.0 6.0 0.00 0.03 0.03 43 1038.3
20260505232520 73 209 2.0 3.0 0.00 0.03 0.03 44 1038.3
20260505232018 73 241 2.0 3.0 0.00 0.03 0.03 44 1038.3
20260505231514 73 242 3.0 4.0 0.00 0.03 0.03 44 1038.3
20260505231013 73 234 3.0 6.0 0.00 0.03 0.03 45 1038.2
20260505230510 73 252 4.0 4.0 0.00 0.03 0.03 46 1038.3
20260505230007 72 263 1.0 3.0 0.00 0.03 0.03 47 1038.1
20260505225504 72 258 3.0 4.0 0.00 0.03 0.03 46 1037.8
20260505224959 73 241 2.0 4.0 0.00 0.03 0.03 47 1038.4
20260505224456 73 263 2.0 3.0 0.00 0.03 0.03 47 1038.0
20260505223954 73 262 2.0 3.0 0.00 0.03 0.03 47 1038.0
20260505223450 73 259 2.0 3.0 0.00 0.03 0.03 47 1037.9
20260505222947 73 246 3.0 3.0 0.00 0.03 0.03 45 1037.5
20260505222443 73 250 2.0 4.0 0.00 0.03 0.03 46 1037.9